Temp
66 65 65 65 65 64 63 65 61 66 62 70 71 71 71 70 71 71 70 71 71 73 73 73 75 75 76 72 75 74 76 75 76 76 78 79 80 80 81 81 81 81 80 81
63 63 63 62 65 65 65 65 63 66 64 72 72 70 68 69 69 69 68 69 69 70 71 72 73 71 69 69 75 74 71 72 71 74 74 73 76 78 79 78 79 79 79 80
61 60 61 59 67 68 68 69 67 62 70 68 67 67 69 68 67 68 70 71 70 69 69 71 72 69 67 71 73 74 71 73 72 72 72 75 76 74 75 76 76 74 74 75
62 58 50 69 70 69 67 69 70 67 67 69 69 70 69 69 68 69 70 69 70 69 69 72 72 71 70 67 69 69 71 71 72 70 69 74 73 71 71 71 70 70 72 73
58 58 62 67 67 66 64 67 71 69 70 69 68 68 69 68 68 71 69 66 67 68 68 69 72 72 70 69 67 67 67 67 68 68 68 69 69 69 69 69 68 68 69 69
56 55 52 66 68 72 71 60 70 67 68 67 66 61 69 68 67 67 66 65 65 65 66 68 68 67 67 66 66 66 69 70 70 67 68 67 68 67 66 64 62 62 62 60
58 57 62 68 70 72 57 62 68 67 68 67 64 66 66 67 66 65 64 63 64 64 64 66 68 69 65 66 65 65 66 66 68 69 68 67 66 65 63 61 60 58 58 59
57 56 54 70 68 63 69 69 68 67 68 68 67 65 63 63 63 64 63 64 64 64 64 65 67 67 67 64 67 66 64 64 63 64 64 64 62 61 60 59 58 57 57 57
64 66 67 71 71 72 71 68 67 67 67 69 67 62 63 63 62 61 62 62 65 63 63 63 67 68 65 64 64 64 62 60 60 61 63 63 62 60 59 59 59 58 58 61
63 66 67 70 71 71 71 71 70 71 69 69 64 63 64 65 61 62 64 64 67 65 63 62 63 64 64 65 65 63 60 59 60 62 61 65 65 63 62 62 63 64 67 67
66 67 68 69 72 73 71 71 71 70 69 70 67 64 65 61 62 65 65 64 64 64 63 63 64 63 64 65 65 61 62 62 62 63 60 57 54 57 63 59 58 65 66 66
70 73 74 73 74 73 71 70 71 70 68 69 70 66 66 66 66 65 64 66 65 65 66 66 65 64 65 65 65 63 61 62 64 64 63 64 65 62 47 47 45 44 46 61
75 74 76 75 76 76 74 72 73 73 72 70 70 67 67 66 68 63 67 67 66 66 66 67 66 65 66 65 65 66 66 66 64 64 68 67 68 68 65 54 46 44 43 44
72 74 72 74 74 75 76 74 70 74 74 73 71 70 69 68 63 66 67 70 70 68 67 67 65 66 68 70 68 69 68 57 68 68 68 69 69 68 69 67 66 64 49 50
72 76 77 79 76 74 76 74 72 72 72 71 71 70 69 68 68 67 67 68 69 71 69 68 66 67 70 71 70 69 69 69 69 69 69 67 69 69 70 69 68 67 66 56
72 75 75 76 74 73 74 74 74 73 72 72 70 70 70 71 70 69 69 69 68 68 69 69 67 69 70 71 70 71 70 63 66 70 68 69 69 70 69 68 68 69 69 69
71 70 72 73 73 73 74 75 76 75 74 73 72 72 71 70 69 68 68 70 70 69 70 70 71 70 70 72 72 73 73 69 65 72 72 72 72 71 71 71 71 71 71 69
78 82 80 81 76 76 75 76 75 75 74 75 73 71 70 68 68 68 68 69 69 69 70 71 71 70 70 72 74 74 75 74 73 74 73 72 73 74 73 74 73 73 72 68
75 76 77 78 78 78 78 76 76 76 74 72 71 70 71 71 71 70 70 68 67 66 69 71 64 67 71 70 71 75 76 76 74 74 74 65 71 75 75 75 75 74 75 74
74 75 75 75 74 74 75 76 76 74 73 72 72 72 70 71 70 69 69 68 70 73 73 71 69 71 72 70 66 78 77 77 76 75 74 75 75 75 75 63 75 76 74 71
73 73 74 73 74 73 74 75 74 72 72 71 71 70 70 71 70 70 68 69 71 71 72 66 71 73 73 72 71 77 77 76 76 76 75 75 76 74 74 73 76 73 73 74
71 72 73 72 71 72 73 72 72 72 71 71 71 72 70 68 69 69 72 73 76 59 71 73 73 68 73 65 76 76 76 76 76 76 75 75 74 74 74 73 64 72 65 68
70 70 71 71 71 71 71 71 71 71 69 70 70 70 69 71 72 69 68 71 75 63 73 74 67 60 59 71 75 75 75 75 75 76 76 75 75 75 75 74 74 67 62 71
68 68 69 69 70 70 70 70 71 71 71 71 72 72 72 72 71 75 79 65 61 60 72 72 64 56 57 72 72 72 73 73 74 76 77 58 76 75 75 74 73 73 70 59
67 68 69 69 69 71 69 70 70 70 70 70 71 71 72 75 74 73 74 73 58 62 71 57 56 55 68 71 71 70 70 71 74 75 75 74 73 68 72 75 75 74 73 73
66 68 67 67 69 70 71 71 71 74 73 72 72 73 74 74 74 70 69 68 70 63 74 73 69 67 72 72 71 71 72 73 71 70 71 73 74 74 73 73 73 72 74 74
69 56 69 71 73 70 71 70 71 73 71 74 74 72 71 72 71 70 63 69 69 71 74 73 70 65 71 71 72 73 73 73 65 72 72 73 73 73 74 73 73 73 73 74
MSLP
1008.02 1008.43 1008.59 1008.55 1008.63 1008.81 1008.74 1008.61 1008.43 1007.72 1008.01 1007.71 1008.36 1008.81 1009.15 1009.53 1009.58 1009.47 1009.42 1009.48 1009.57 1009.46 1009.65 1009.90 1010.22 1010.54 1010.95 1011.47 1012.02 1012.41 1012.75 1013.26 1013.41 1013.85 1014.30 1014.71 1015.09 1015.27 1015.54 1015.73 1015.89 1016.14 1016.31 1016.55
1008.30 1008.72 1008.81 1008.55 1008.46 1008.51 1008.47 1008.48 1008.42 1007.98 1007.81 1008.05 1008.51 1009.05 1009.39 1009.66 1009.77 1009.66 1009.69 1009.78 1009.87 1009.86 1009.93 1010.07 1010.12 1010.82 1011.13 1011.66 1012.01 1012.44 1012.94 1013.41 1013.74 1013.83 1014.36 1014.77 1015.00 1015.08 1015.31 1015.34 1015.61 1015.85 1016.15 1016.48
1008.21 1008.96 1008.90 1008.37 1007.49 1007.62 1007.59 1007.72 1007.70 1007.58 1007.51 1008.40 1008.67 1009.05 1009.35 1009.74 1010.03 1009.93 1009.88 1009.91 1010.01 1010.13 1010.25 1010.27 1010.42 1011.01 1011.57 1011.59 1012.07 1012.57 1013.11 1013.42 1013.78 1014.14 1014.49 1014.83 1014.99 1015.13 1015.28 1015.32 1015.63 1015.84 1016.13 1016.52
1008.42 1009.14 1008.35 1006.80 1007.41 1007.45 1007.44 1007.37 1007.72 1007.90 1007.98 1008.28 1008.68 1009.12 1009.66 1010.03 1010.16 1010.17 1010.27 1010.42 1010.21 1010.44 1010.56 1010.62 1010.87 1011.37 1011.90 1011.99 1012.39 1012.90 1013.14 1013.42 1013.88 1014.34 1014.58 1014.71 1015.07 1015.38 1015.46 1015.68 1015.83 1016.07 1016.37 1016.71
1008.62 1008.32 1007.82 1007.07 1007.05 1007.29 1007.30 1006.98 1007.35 1007.52 1007.64 1008.41 1009.06 1009.53 1009.69 1010.29 1010.58 1010.56 1010.99 1011.09 1011.09 1011.04 1011.11 1011.22 1011.16 1011.36 1011.85 1012.31 1012.80 1013.01 1013.26 1013.56 1013.85 1014.32 1014.52 1014.96 1015.34 1015.66 1015.88 1015.88 1016.20 1016.48 1016.98 1017.23
1008.69 1007.93 1007.15 1006.61 1007.02 1007.31 1007.51 1007.23 1007.48 1007.91 1007.98 1008.63 1009.30 1009.48 1009.52 1010.50 1011.01 1011.29 1011.66 1011.79 1011.80 1011.78 1012.00 1011.72 1011.66 1011.62 1012.07 1012.53 1012.86 1012.84 1013.14 1013.26 1013.75 1014.02 1014.51 1014.99 1015.36 1015.86 1016.07 1016.34 1016.80 1017.20 1017.81 1017.95
1007.98 1007.62 1007.01 1006.93 1007.25 1007.60 1007.70 1007.74 1007.80 1008.03 1008.28 1008.86 1009.42 1010.09 1010.65 1011.01 1011.35 1011.79 1012.35 1012.38 1012.51 1012.56 1012.54 1012.40 1011.88 1012.05 1012.68 1012.86 1013.20 1013.31 1013.45 1013.62 1013.56 1014.06 1014.43 1014.78 1015.21 1015.85 1016.33 1016.82 1017.34 1017.74 1018.15 1018.34
1007.98 1007.48 1007.05 1007.08 1007.68 1007.59 1007.49 1007.72 1008.03 1008.31 1008.70 1009.20 1010.05 1010.70 1011.34 1011.66 1011.98 1012.21 1012.73 1012.94 1013.04 1013.15 1012.79 1012.82 1012.63 1013.18 1013.38 1013.48 1013.80 1013.88 1013.68 1014.01 1014.04 1014.01 1014.51 1014.72 1015.54 1016.18 1016.70 1017.23 1017.70 1018.07 1018.25 1018.51
1007.01 1006.55 1006.75 1007.03 1007.16 1007.44 1007.77 1007.94 1008.25 1008.59 1009.13 1009.61 1010.35 1011.38 1011.79 1012.18 1012.46 1012.66 1013.19 1012.97 1013.31 1013.68 1013.25 1013.35 1013.38 1013.51 1013.68 1014.22 1014.27 1014.43 1014.66 1014.60 1014.90 1014.95 1015.32 1015.60 1015.95 1016.49 1017.19 1017.63 1018.12 1018.38 1018.70 1018.69
1006.70 1006.46 1006.59 1006.87 1007.31 1007.64 1007.99 1008.08 1008.44 1008.84 1009.30 1009.81 1010.64 1011.39 1011.99 1012.43 1012.34 1012.90 1013.22 1013.75 1013.57 1013.74 1013.42 1013.65 1013.93 1013.74 1014.16 1014.45 1014.75 1014.86 1015.26 1015.61 1015.83 1015.96 1016.16 1016.49 1016.71 1017.25 1017.53 1017.91 1018.15 1018.23 1018.36 1018.56
1005.85 1005.99 1006.42 1006.72 1006.96 1007.26 1007.95 1008.31 1008.62 1009.11 1009.46 1009.93 1010.77 1011.26 1011.66 1012.44 1012.97 1013.13 1013.46 1013.54 1013.80 1013.71 1013.75 1013.97 1014.31 1014.37 1014.71 1014.92 1015.03 1015.40 1015.78 1016.12 1016.52 1016.72 1016.98 1017.40 1018.02 1018.49 1018.40 1018.89 1018.66 1018.46 1018.64 1019.01
1004.42 1004.70 1005.09 1005.61 1006.22 1007.12 1007.68 1008.14 1008.51 1008.85 1009.49 1010.17 1010.67 1011.11 1011.60 1012.14 1012.76 1013.08 1013.36 1013.62 1013.75 1013.88 1013.88 1014.35 1014.51 1014.71 1014.94 1015.19 1015.37 1015.82 1016.25 1016.52 1017.00 1017.25 1017.58 1017.87 1018.09 1018.80 1019.55 1019.69 1019.52 1019.15 1019.28 1019.45
1004.10 1004.58 1004.92 1005.25 1005.87 1006.71 1007.21 1007.96 1008.47 1008.75 1009.22 1009.89 1010.73 1011.26 1011.73 1012.13 1012.69 1013.25 1013.54 1013.69 1013.82 1014.03 1014.28 1014.40 1014.63 1014.82 1015.35 1015.74 1015.87 1015.99 1016.14 1016.72 1017.22 1017.78 1017.81 1017.89 1017.98 1018.65 1019.11 1020.23 1020.32 1020.29 1020.37 1020.42
1004.41 1004.63 1005.14 1005.30 1005.60 1006.44 1007.02 1007.73 1008.54 1008.94 1009.42 1009.86 1010.47 1011.13 1011.58 1012.16 1012.82 1013.19 1013.51 1013.61 1013.88 1014.11 1014.36 1014.62 1014.87 1014.95 1015.35 1015.59 1015.80 1015.98 1016.39 1017.23 1017.33 1017.60 1017.69 1017.98 1018.39 1018.66 1018.98 1019.46 1019.79 1020.39 1021.14 1021.59
1004.36 1004.34 1004.45 1004.74 1005.46 1006.23 1006.82 1007.66 1008.25 1008.68 1009.21 1009.87 1010.52 1010.97 1011.45 1011.93 1012.43 1012.93 1013.45 1013.78 1013.96 1014.01 1014.33 1014.64 1015.02 1015.30 1015.55 1015.75 1015.95 1016.16 1016.52 1016.95 1017.29 1017.63 1017.80 1018.10 1018.24 1018.64 1018.87 1019.20 1019.47 1019.84 1020.71 1021.62
1004.12 1004.43 1004.64 1004.71 1005.33 1006.01 1006.52 1007.18 1007.67 1008.27 1008.91 1009.55 1010.19 1010.79 1011.24 1011.72 1012.17 1012.68 1013.23 1013.61 1013.85 1013.99 1014.32 1014.60 1014.96 1015.54 1015.96 1016.19 1016.36 1016.62 1016.74 1017.05 1017.06 1017.20 1017.76 1018.14 1018.30 1018.45 1018.80 1019.04 1019.40 1019.88 1020.12 1020.42
1003.78 1004.38 1004.59 1004.74 1005.17 1005.71 1005.99 1006.40 1006.80 1007.42 1008.29 1008.95 1009.55 1010.36 1010.97 1011.53 1012.06 1012.53 1013.03 1013.42 1013.70 1013.95 1014.34 1014.61 1014.92 1015.70 1016.02 1016.10 1016.06 1016.10 1016.37 1017.02 1016.98 1017.01 1017.23 1017.61 1018.09 1018.37 1018.66 1018.84 1019.08 1019.31 1019.69 1020.21
1003.23 1003.11 1003.59 1003.96 1004.54 1005.14 1005.71 1006.11 1006.70 1007.20 1007.67 1008.30 1009.25 1009.92 1010.56 1011.06 1011.29 1011.94 1012.50 1013.03 1013.41 1013.79 1014.20 1014.53 1014.96 1015.48 1015.82 1015.90 1015.92 1016.02 1015.85 1016.16 1016.54 1016.60 1017.07 1017.61 1017.92 1017.97 1018.29 1018.58 1018.82 1019.03 1019.46 1019.91
1003.38 1003.55 1003.83 1004.10 1004.36 1004.81 1005.19 1005.62 1006.11 1006.69 1007.37 1008.10 1008.91 1009.25 1009.67 1010.33 1010.87 1011.47 1012.09 1012.61 1012.99 1013.37 1013.70 1014.36 1014.90 1015.25 1015.40 1015.65 1015.79 1015.73 1015.60 1015.64 1016.04 1016.39 1016.75 1017.41 1017.87 1017.94 1018.16 1018.34 1018.38 1018.58 1018.86 1019.06
1003.37 1003.63 1003.94 1004.36 1004.74 1005.00 1005.17 1005.50 1005.95 1006.53 1007.12 1007.72 1008.25 1008.93 1009.47 1009.97 1010.51 1011.01 1011.55 1011.90 1012.20 1012.44 1013.04 1013.85 1014.57 1014.88 1015.13 1015.48 1015.81 1015.39 1015.28 1015.24 1015.57 1016.01 1016.59 1016.83 1017.19 1017.44 1017.66 1017.85 1017.83 1017.99 1018.41 1018.70
1003.37 1003.64 1003.86 1004.45 1004.73 1005.11 1005.31 1005.51 1005.76 1006.15 1006.70 1007.23 1007.77 1008.13 1008.50 1009.22 1009.98 1010.60 1011.16 1011.28 1011.67 1012.45 1012.87 1013.51 1013.93 1014.32 1014.84 1015.12 1015.49 1015.09 1015.04 1015.26 1015.49 1015.74 1016.04 1016.36 1016.65 1017.01 1017.18 1017.38 1017.42 1017.82 1018.16 1018.36
1003.41 1003.55 1003.84 1004.32 1004.73 1004.84 1005.09 1005.37 1005.65 1005.89 1006.33 1006.89 1007.38 1007.81 1008.36 1008.87 1009.45 1009.95 1010.06 1010.07 1010.66 1011.95 1012.36 1012.84 1013.38 1013.84 1014.15 1014.82 1014.82 1014.93 1015.03 1015.21 1015.32 1015.51 1015.84 1016.17 1016.37 1016.55 1016.82 1017.12 1017.62 1017.72 1017.93 1018.22
1003.92 1003.94 1004.04 1004.26 1004.41 1004.63 1004.91 1005.10 1005.32 1005.54 1005.79 1006.13 1006.52 1007.03 1007.43 1007.60 1008.09 1008.82 1009.45 1009.91 1010.21 1011.31 1011.58 1012.10 1012.63 1013.34 1013.97 1014.34 1014.43 1014.67 1014.83 1014.95 1015.05 1015.27 1015.45 1015.75 1015.94 1016.16 1016.37 1016.57 1016.90 1017.57 1017.97 1018.06
1004.43 1004.45 1004.45 1004.54 1004.56 1004.63 1004.68 1004.84 1004.97 1005.19 1005.53 1005.87 1006.02 1006.18 1006.56 1007.12 1007.76 1008.03 1008.03 1008.77 1009.68 1010.68 1010.89 1011.48 1012.30 1013.01 1013.69 1013.87 1014.17 1014.30 1014.49 1014.78 1015.06 1015.07 1015.14 1015.70 1015.67 1015.92 1016.10 1016.41 1016.82 1017.26 1017.62 1018.06
1005.05 1005.00 1004.82 1004.72 1004.66 1004.56 1004.79 1004.92 1005.01 1004.96 1004.97 1005.21 1005.53 1005.92 1006.10 1006.32 1006.44 1007.03 1007.72 1008.33 1009.29 1010.22 1010.71 1011.30 1011.81 1012.50 1013.11 1013.35 1013.67 1014.05 1014.40 1014.64 1014.64 1014.77 1015.02 1015.25 1015.54 1016.00 1016.12 1016.21 1016.46 1016.83 1017.10 1017.28
1005.30 1005.17 1005.23 1005.21 1005.10 1005.05 1005.00 1005.05 1004.80 1004.63 1004.67 1004.49 1004.60 1005.05 1005.41 1005.66 1006.03 1006.69 1007.38 1007.78 1008.58 1009.27 1009.75 1010.60 1011.42 1012.10 1012.31 1012.72 1013.16 1013.53 1013.83 1014.05 1014.48 1014.82 1014.89 1015.07 1015.18 1015.53 1015.91 1016.15 1016.34 1016.67 1016.85 1017.06
1005.75 1005.73 1005.46 1005.18 1005.04 1005.19 1005.07 1005.14 1004.67 1004.37 1004.46 1004.35 1004.31 1004.72 1005.05 1005.47 1005.93 1006.42 1007.07 1007.62 1008.08 1008.64 1009.06 1009.89 1010.69 1011.37 1011.76 1012.19 1012.61 1012.92 1013.28 1013.59 1013.99 1014.20 1014.53 1014.78 1015.15 1015.42 1015.68 1015.98 1016.23 1016.49 1016.69 1016.87
Wind_Speed
3 1 3 2 4 6 7 4 7 9 8 11 6 7 6 6 6 5 3 1 3 5 7 7 8 9 10 7 8 7 8 8 9 7 8 9 9 8 9 8 8 8 6 4
4 2 1 5 6 7 9 8 12 15 17 7 7 6 6 5 4 5 2 3 4 5 6 8 9 8 6 8 9 9 7 6 6 6 7 7 8 8 9 9 8 7 6 5
5 2 2 8 13 13 9 9 8 11 10 2 6 8 6 4 3 4 3 4 3 3 4 5 7 6 5 9 9 9 7 9 8 6 6 7 7 6 7 8 6 6 6 6
1 5 7 5 2 4 10 10 10 12 10 7 6 3 3 3 4 3 3 6 0 1 2 4 4 5 6 5 5 6 7 7 7 7 6 7 6 5 5 5 7 7 7 7
4 6 5 8 5 7 7 9 4 12 11 7 3 2 6 3 2 1 4 5 6 6 5 3 3 6 7 7 7 5 4 5 6 6 7 7 7 7 5 7 7 7 6 6
4 5 8 3 2 4 4 8 2 4 6 8 7 5 1 4 3 7 7 7 6 7 6 5 4 6 8 6 3 3 6 5 6 5 6 7 6 6 4 5 7 6 7 6
4 5 5 3 2 6 6 3 3 2 5 9 7 2 2 7 6 9 8 7 7 5 3 4 7 11 6 8 7 6 6 3 4 5 6 6 5 6 6 7 7 7 6 6
3 4 6 7 6 5 3 2 3 2 5 8 5 6 8 8 8 9 7 9 7 3 4 5 8 7 7 8 5 7 7 7 7 8 7 7 10 8 8 9 8 6 5 6
8 2 3 8 1 1 2 3 1 4 6 8 7 9 10 10 10 8 4 6 4 3 5 6 6 8 8 5 6 9 8 9 7 9 8 7 10 10 8 7 6 5 3 4
4 4 5 7 6 3 2 0 5 7 10 9 13 13 13 9 9 6 2 4 5 6 9 9 7 8 8 7 8 9 9 8 6 8 9 9 7 6 6 6 5 5 5 5
2 3 2 6 8 6 6 7 9 8 10 10 14 13 14 8 7 9 5 4 4 6 8 9 8 8 7 8 9 9 8 8 7 7 8 8 8 6 4 4 3 5 5 5
3 9 3 5 11 11 11 11 11 13 12 10 12 12 11 9 9 8 6 6 6 7 9 10 9 9 8 7 7 9 8 6 6 6 5 6 7 7 15 12 9 10 10 6
4 9 5 8 12 14 12 13 11 13 12 13 10 11 11 11 8 7 7 7 7 8 8 8 9 10 7 7 8 8 9 8 6 5 5 6 6 5 7 7 12 14 11 8
5 12 5 8 8 12 11 13 12 11 10 11 12 12 12 11 8 8 8 7 8 9 8 8 7 7 7 7 8 10 10 8 6 5 5 5 5 6 5 5 6 6 10 8
9 5 2 9 10 11 13 14 14 13 13 12 11 12 13 13 13 11 10 8 7 8 7 7 7 7 7 7 8 8 8 7 6 5 5 6 5 4 5 5 6 7 7 4
9 5 5 8 11 12 12 12 12 12 13 13 13 13 14 12 12 11 11 11 10 9 8 8 8 8 7 7 9 7 7 9 7 7 6 5 4 5 5 5 5 4 5 6
15 7 5 6 10 13 14 13 12 13 14 14 14 14 13 12 12 12 11 11 10 9 8 8 8 8 7 9 10 7 7 7 6 6 6 6 5 5 5 4 4 4 4 4
1 9 12 8 11 11 11 11 10 10 14 14 14 15 14 14 14 13 12 11 9 8 9 9 9 9 8 8 7 6 6 7 6 6 6 6 5 4 4 4 4 5 4 5
6 1 3 7 7 9 8 9 11 10 10 13 15 16 16 14 12 13 12 11 11 11 10 10 10 10 9 8 7 6 7 7 6 6 5 5 4 4 4 4 4 4 4 4
6 7 4 4 4 6 8 7 7 9 10 12 12 12 14 13 13 13 13 13 11 8 10 12 11 10 10 11 9 7 7 7 7 6 6 5 4 4 4 5 4 4 4 4
9 5 6 5 5 6 7 5 8 10 12 13 15 16 16 15 14 13 13 10 13 11 11 13 11 9 9 9 8 6 6 6 5 5 5 5 5 5 4 5 6 4 4 6
6 8 7 7 7 7 6 6 8 8 12 13 14 11 13 14 14 14 13 11 9 15 9 9 10 12 10 11 8 7 7 7 6 5 5 5 5 5 6 5 3 5 4 3
4 3 4 4 4 4 4 6 7 9 12 13 15 14 14 12 12 12 11 13 8 13 11 11 12 14 12 10 9 9 9 8 7 6 5 4 5 5 5 5 5 3 3 5
6 6 4 2 3 3 3 3 5 8 9 10 13 14 13 11 10 10 8 11 12 15 12 11 12 16 15 9 9 8 8 8 7 7 6 3 4 4 4 4 4 4 4 3
5 4 5 5 4 3 4 3 4 6 8 9 10 12 14 10 10 10 10 9 14 13 12 12 16 17 12 10 9 8 8 8 8 6 5 5 4 4 5 4 4 4 4 4
8 6 5 5 4 4 4 3 4 4 6 7 8 9 10 10 9 8 10 12 12 14 12 11 11 12 11 11 10 10 9 8 7 7 7 7 6 5 5 5 5 5 4 4
4 3 5 5 3 5 5 5 5 6 6 7 8 7 9 9 9 9 9 10 9 11 11 10 11 11 11 10 11 10 9 8 7 7 7 6 6 5 5 5 5 5 5 5
Wind_Direction
193 166 198 224 201 196 228 242 248 290 250 279 284 264 273 296 290 305 316 295 260 221 214 209 209 204 184 141 173 169 184 192 207 208 208 211 223 219 220 215 220 236 235 233
187 167 197 262 255 247 249 249 252 262 272 299 265 250 261 284 297 322 323 284 258 239 217 210 190 183 148 148 164 157 153 173 158 173 181 196 211 206 216 218 219 224 220 212
233 179 234 256 248 232 233 229 241 252 282 207 226 240 252 269 269 301 341 335 276 263 240 224 176 143 159 152 149 157 153 145 138 150 164 177 184 188 208 206 190 186 169 159
214 161 235 279 267 271 239 264 246 259 248 228 233 224 260 252 267 266 335 354 275 108 157 167 146 168 156 131 144 155 161 155 155 160 145 153 147 149 152 158 152 148 159 150
222 227 311 265 205 205 211 278 267 251 252 216 193 238 242 226 241 261 44 57 67 67 39 0 242 192 175 171 171 157 152 153 153 159 151 151 146 145 136 125 123 111 119 121
162 235 261 304 144 166 152 272 62 276 252 188 165 230 51 150 126 102 83 70 76 66 34 39 65 107 110 84 94 198 199 194 173 156 175 170 154 148 115 100 102 99 90 75
194 245 272 235 154 155 227 0 349 275 201 178 190 15 74 109 103 89 81 78 76 66 74 53 77 86 88 86 63 44 60 81 149 168 176 153 130 124 115 105 100 89 89 73
151 217 279 164 141 229 36 22 308 211 170 172 122 112 115 111 103 84 82 88 64 58 56 69 93 119 96 75 80 89 79 70 60 77 73 94 103 92 93 100 97 85 93 79
210 193 96 184 232 173 304 305 119 148 150 158 131 134 126 117 95 78 35 75 99 116 77 56 116 123 100 87 78 82 82 72 64 72 85 99 105 109 106 103 107 110 112 106
181 169 216 208 205 235 209 156 131 151 141 138 136 141 128 118 103 107 203 105 110 110 87 83 76 95 93 96 100 93 82 70 67 79 84 90 93 99 112 128 131 128 116 101
206 223 197 202 205 179 145 135 145 141 145 136 146 148 142 139 163 147 159 132 147 111 98 91 96 86 89 106 110 94 92 94 85 83 82 81 65 44 77 63 28 109 95 92
197 170 141 150 179 163 152 157 151 143 141 143 155 141 151 144 148 143 150 145 131 112 108 110 104 97 92 93 100 109 97 91 96 103 100 107 110 95 51 37 25 48 49 94
124 156 103 139 164 168 158 157 155 150 148 153 151 149 151 146 149 142 154 155 144 134 120 113 107 100 108 114 117 113 107 106 100 114 112 110 102 113 109 76 67 49 39 51
119 133 129 175 169 176 149 153 160 160 160 166 162 157 152 150 143 155 166 155 141 138 132 127 123 119 124 126 122 121 113 103 123 118 111 115 125 121 124 126 115 97 48 42
187 199 313 141 129 149 142 148 156 165 171 168 170 168 164 163 168 168 162 159 155 148 137 131 135 134 138 133 130 131 138 137 133 128 118 113 109 105 105 117 121 122 132 126
165 172 154 155 155 157 158 164 169 174 173 169 174 177 176 174 166 163 162 164 165 164 154 151 147 146 155 152 148 147 138 129 141 133 133 124 115 114 118 122 127 131 149 148
136 152 146 153 172 176 186 184 191 184 181 180 178 171 169 167 165 167 175 177 178 165 166 166 150 152 168 172 163 154 147 152 133 146 144 140 141 140 137 138 139 148 152 158
39 185 189 183 179 187 197 199 193 191 196 188 168 168 171 175 177 175 174 171 169 171 179 178 171 164 169 167 171 170 164 157 164 160 156 165 155 142 158 172 170 171 170 160
210 186 222 213 183 200 211 202 200 193 182 173 171 181 184 183 176 173 168 172 179 189 187 182 163 179 174 171 174 169 162 151 145 149 156 133 165 181 196 202 200 197 202 200
206 187 161 161 187 198 211 213 200 189 185 184 186 177 183 184 178 173 175 186 193 191 169 174 173 187 182 174 206 180 172 170 162 157 176 182 192 212 222 226 232 204 200 224
221 204 168 195 205 207 226 202 195 199 185 181 186 189 188 181 176 172 179 194 195 183 182 163 182 186 186 178 196 181 162 158 161 166 175 198 214 229 236 240 214 205 211 229
197 199 202 198 205 217 212 205 209 199 189 194 204 194 183 178 177 187 197 198 177 167 181 185 194 187 183 173 191 194 194 192 194 195 201 210 219 225 228 221 207 230 182 224
91 133 151 171 176 192 189 207 213 204 199 199 194 191 188 186 180 177 196 209 188 181 184 191 183 169 163 187 197 202 206 208 211 209 211 221 226 224 224 217 206 199 205 252
56 51 66 82 172 183 220 203 215 217 221 217 210 200 190 182 197 209 202 156 170 163 190 184 171 165 171 192 196 197 197 200 206 209 207 205 197 194 192 200 210 220 215 211
43 54 43 24 353 353 345 318 274 247 223 221 217 208 202 206 198 190 191 173 159 170 192 168 165 165 186 192 192 192 195 202 206 207 206 202 188 184 208 201 192 187 187 188
21 23 13 357 334 334 317 285 262 263 240 226 224 216 213 205 199 174 180 179 177 184 189 177 182 182 191 191 189 190 195 193 191 206 203 197 196 193 184 181 159 174 182 180
33 23 1 358 6 349 335 311 283 266 238 248 246 217 209 203 201 197 179 183 182 189 188 183 180 182 188 191 196 193 191 189 193 191 191 189 186 187 183 177 171 174 187 187